Погода в Бад-Заульгау

Германия     48°00′53″N   9°30′00″E
темп.,
°C
ветер,
м/с
пор.,
м/с
влажн.,
%
обл.,
%
осадки,
мм/ч
давл.,
гПа
погр.,
м
16 июня, ср
ср1623:00+17всв1175100 0.0 101811
02:00+15св1178100 0.0 101711
05:00+14св1183100 0.0 101711
08:00+18св1178100 0.0 1016105
11:00+22всв2268100 0.0 1016409
14:00+24всв3363100 0.0 1015783
17:00+24св3369100 0.0 1014632
20:00+21всв2483100 0.0 101478
17 июня, чт
чт1723:00+17всв2285100 0.0 101414
02:00+15св118771 0.0 101411
05:00+14ссз1188100 0.0 101411
08:00+18ююз11837 0.0 1015113
11:00+24ююз226553 0.0 1015528
14:00+27всв216021 0.0 1014816
17:00+27всв346668 0.0 1013672
20:00+23всв388510 0.0 1013211
18 июня, пт
пт1823:00+18св22915 0.0 101419
02:00+16св22895 0.0 101411
05:00+15ююз22945 0.0 101520
08:00+19юз22895 0.1 1015192
11:00+23св337619 0.0 1015693
14:00+25св336983 0.0 1014881
17:00+26св34665 0.0 1013803
20:00+23вюв358282 0.7 101484
19 июня, сб
сб1923:00+17зюз61395100 0.6 1017351
02:00+16юз2598100 0.6 1017149
05:00+15юз229358 0.0 101823
08:00+18юз1287100 0.0 1019119
11:00+23вюв1171100 0.0 1018468
14:00+25всв3266100 0.0 1016845
17:00+25св4471100 0.0 1015707
20:00+23св388682 0.0 1015241
20 июня, вс
вс2023:00+19всв38935 0.0 1015146
02:00+17всв369399 0.0 101489
05:00+16ссв229379 0.0 101221
08:00+19св228692 0.0 1012129
11:00+24св227299 0.0 1010447
14:00+27всв2265100 0.0 1008716
17:00+28в2268100 0.0 1006638
20:00+17с3788100 7.7 1011196